Location: Unspecified
(0.0000°N, 0.0000°E)
Time: 18:00:25
(UTC+00:00)

STARLINK 1036 - Pass Details

Date: 20 January 2020
Orbit: 465 x 468 km, 53.0° (Epoch: 23 January)

Event Time Altitude Azimuth Distance (km) Brightness Sun altitude
Exits shadow 04:33:46 25° 32° (NNE) 959 4.9 -22.7°
Drops below altitude 10° 04:35:25 10° 33° (NNE) 1,606 6.1 -22.3°
Sets 04:37:33 0° 33° (NNE) 2,477 7.1 -21.8°
